UAE145 OMDB-EHAM

Flight info

Callsign UAE145
Flight time N/A
Altitude 34000
Route ANVIX R401 GIDIS G783 VAVIM DCT ESROM M318 GOLGU M550 RIBOT DCT MIGMA DCT ITRUX Y511 PMA DCT NOVPA/N0491F360 J981 DATOK L550 GENIV L324 LAKTO DCT OTHON UN128 RDS UL609 MES UG18 FSK UN128 RUGAS DCT RAXAD DCT RAMAP DCT SOMUN DCT SIVLA/N0488F380 DCT NIDLO DCT LAMSI DCT MAPOX DCT NORKU
Aircraft B77W/H-SDE1E2E3FGHIJ2J3J4J5M1RWXY/LB1D1

Departure

Time 2026-04-21 09:59
Airport Dubai International Airport (OMDB)

Arrival

Time N/A
Airport Amsterdam Airport Schiphol (EHAM)
Time Latitude Longitude Altitude Speed Heading
2026-04-21 09:19 25.24769 55.36500 31 ft 0 kts 211°
2026-04-21 09:47 25.24772 55.36503 28 ft 2 kts 211°
2026-04-21 09:48 25.24788 55.36513 32 ft 3 kts 211°
2026-04-21 09:48 25.24806 55.36525 31 ft 3 kts 211°
2026-04-21 09:48 25.24822 55.36536 31 ft 3 kts 206°
2026-04-21 09:48 25.24840 55.36543 31 ft 3 kts 176°
2026-04-21 09:49 25.24857 55.36537 31 ft 3 kts 137°
2026-04-21 09:49 25.24869 55.36523 29 ft 1 kts 122°
2026-04-21 09:49 25.24875 55.36511 31 ft 3 kts 122°
2026-04-21 09:49 25.24885 55.36493 31 ft 2 kts 122°
2026-04-21 09:50 25.24888 55.36489 31 ft 0 kts 122°
2026-04-21 09:52 25.24869 55.36522 29 ft 10 kts 122°
2026-04-21 09:52 25.24832 55.36588 32 ft 10 kts 120°
2026-04-21 09:52 25.24802 55.36658 29 ft 10 kts 112°
2026-04-21 09:52 25.24781 55.36731 28 ft 10 kts 104°
2026-04-21 09:53 25.24768 55.36806 29 ft 10 kts 106°
2026-04-21 09:53 25.24737 55.36876 30 ft 10 kts 115°
2026-04-21 09:53 25.24756 55.36943 26 ft 10 kts 47°
2026-04-21 09:53 25.24760 55.37015 27 ft 10 kts 118°
2026-04-21 09:54 25.24725 55.37082 29 ft 10 kts 120°
2026-04-21 09:54 25.24688 55.37149 27 ft 10 kts 121°
2026-04-21 09:54 25.24646 55.37224 26 ft 13 kts 122°
2026-04-21 09:54 25.24594 55.37317 29 ft 16 kts 122°
2026-04-21 09:55 25.24532 55.37425 28 ft 18 kts 122°
2026-04-21 09:55 25.24466 55.37542 30 ft 18 kts 122°
2026-04-21 09:55 25.24400 55.37659 31 ft 17 kts 122°
2026-04-21 09:55 25.24346 55.37757 29 ft 11 kts 120°
2026-04-21 09:56 25.24348 55.37831 26 ft 10 kts 50°
2026-04-21 09:56 25.24406 55.37878 28 ft 10 kts 33°
2026-04-21 09:56 25.24467 55.37922 29 ft 10 kts 34°
2026-04-21 09:56 25.24528 55.37967 29 ft 11 kts 34°
2026-04-21 09:57 25.24597 55.38019 29 ft 13 kts 34°
2026-04-21 09:57 25.24670 55.38072 29 ft 13 kts 32°
2026-04-21 09:57 25.24741 55.38118 31 ft 9 kts 15°
2026-04-21 09:57 25.24784 55.38071 30 ft 13 kts 298°
2026-04-21 09:58 25.24898 55.37860 30 ft 62 kts 302°
2026-04-21 09:58 25.25240 55.37244 32 ft 124 kts 301°
2026-04-21 09:58 25.25783 55.36266 31 ft 173 kts 302°
2026-04-21 09:58 25.26452 55.35092 389 ft 182 kts 303°
2026-04-21 09:59 25.27144 55.33890 838 ft 190 kts 304°
2026-04-21 09:59 25.27856 55.32631 1322 ft 196 kts 304°
2026-04-21 09:59 25.28582 55.31343 1856 ft 198 kts 304°
2026-04-21 09:59 25.29232 55.30013 2379 ft 200 kts 288°
2026-04-21 10:00 25.29168 55.28430 2687 ft 214 kts 249°
2026-04-21 10:00 25.28544 55.26982 3202 ft 210 kts 246°
2026-04-21 10:00 25.27901 55.25510 3622 ft 215 kts 245°
2026-04-21 10:00 25.27260 55.24012 4046 ft 218 kts 244°
2026-04-21 10:01 25.26611 55.22495 4503 ft 218 kts 244°
2026-04-21 10:01 25.25983 55.20981 5028 ft 217 kts 244°
2026-04-21 10:01 25.25324 55.19416 5243 ft 233 kts 243°
2026-04-21 10:01 25.24559 55.17789 5534 ft 243 kts 230°
2026-04-21 10:02 25.21518 55.16476 6326 ft 250 kts 172°
2026-04-21 10:02 25.19780 55.16804 6679 ft 257 kts 162°
2026-04-21 10:02 25.18260 55.17833 7113 ft 264 kts 135°
2026-04-21 10:03 25.17206 55.19599 7191 ft 285 kts 115°
2026-04-21 10:03 25.16368 55.21639 7604 ft 294 kts 117°
2026-04-21 10:03 25.15459 55.23653 8323 ft 294 kts 120°
2026-04-21 10:03 25.14468 55.25652 8889 ft 299 kts 121°
2026-04-21 10:04 25.13456 55.27677 9457 ft 304 kts 121°
2026-04-21 10:04 25.12441 55.29736 10032 ft 307 kts 121°
2026-04-21 10:04 25.11431 55.31818 10653 ft 308 kts 120°
2026-04-21 10:04 25.10435 55.33915 11340 ft 309 kts 118°
2026-04-21 10:05 25.09534 55.36079 12046 ft 311 kts 116°
2026-04-21 10:05 25.08653 55.38268 12798 ft 313 kts 116°
2026-04-21 10:05 25.07760 55.40463 13550 ft 315 kts 116°
2026-04-21 10:05 25.06862 55.42689 14161 ft 322 kts 115°
2026-04-21 10:06 25.05957 55.45034 14362 ft 344 kts 115°
2026-04-21 10:06 25.05000 55.47547 14534 ft 367 kts 114°
2026-04-21 10:06 25.03980 55.50213 14692 ft 389 kts 115°
2026-04-21 10:06 25.02900 55.53021 14981 ft 405 kts 114°
2026-04-21 10:07 25.01771 55.55908 15432 ft 414 kts 117°
2026-04-21 10:07 25.00395 55.58722 16006 ft 419 kts 123°
2026-04-21 10:07 24.98840 55.61447 16676 ft 422 kts 124°
2026-04-21 10:07 24.97259 55.64196 17319 ft 427 kts 123°
2026-04-21 10:08 24.95702 55.67005 17934 ft 432 kts 123°
2026-04-21 10:08 24.94149 55.69865 18468 ft 437 kts 123°
2026-04-21 10:08 24.92467 55.72663 18995 ft 440 kts 128°
2026-04-21 10:08 24.90634 55.75384 19537 ft 444 kts 129°
2026-04-21 10:09 24.88756 55.78100 20067 ft 448 kts 129°
2026-04-21 10:09 24.86879 55.80861 20578 ft 453 kts 129°
2026-04-21 10:09 24.85008 55.83667 21098 ft 457 kts 128°
2026-04-21 10:09 24.83148 55.86469 21624 ft 461 kts 129°
2026-04-21 10:10 24.81203 55.89340 22133 ft 461 kts 132°
2026-04-21 10:10 24.78895 55.91757 22321 ft 459 kts 151°
2026-04-21 10:10 24.76043 55.93176 22725 ft 456 kts 167°
2026-04-21 10:10 24.72901 55.93784 23243 ft 451 kts 181°
2026-04-21 10:11 24.69821 55.93697 23714 ft 449 kts 187°
2026-04-21 10:11 24.66691 55.93504 24089 ft 452 kts 186°
2026-04-21 10:11 24.63548 55.93306 24441 ft 452 kts 191°
2026-04-21 10:11 24.60502 55.92478 24752 ft 452 kts 204°
2026-04-21 10:12 24.57687 55.90968 25175 ft 450 kts 214°
2026-04-21 10:12 24.55204 55.88904 25565 ft 447 kts 224°
2026-04-21 10:12 24.52889 55.86593 25874 ft 452 kts 224°
2026-04-21 10:12 24.50547 55.84271 26233 ft 456 kts 223°
2026-04-21 10:13 24.48174 55.81947 26630 ft 459 kts 223°
2026-04-21 10:13 24.45771 55.79623 27034 ft 461 kts 223°
2026-04-21 10:13 24.43354 55.77301 27436 ft 463 kts 223°
2026-04-21 10:13 24.40925 55.74973 27872 ft 464 kts 223°
2026-04-21 10:14 24.38482 55.72634 28227 ft 467 kts 223°
2026-04-21 10:14 24.36029 55.70281 28533 ft 471 kts 223°
2026-04-21 10:14 24.33563 55.67900 28858 ft 474 kts 223°
2026-04-21 10:14 24.31081 55.65502 29156 ft 476 kts 223°
2026-04-21 10:15 24.28684 55.62997 29445 ft 477 kts 230°
2026-04-21 10:15 24.26658 55.60107 29683 ft 479 kts 238°
2026-04-21 10:15 24.24973 55.56954 29907 ft 480 kts 244°
2026-04-21 10:15 24.23670 55.53591 30194 ft 479 kts 252°
2026-04-21 10:16 24.22611 55.50135 30573 ft 477 kts 253°
2026-04-21 10:16 24.21572 55.46693 30964 ft 476 kts 253°
2026-04-21 10:16 24.20546 55.43305 31336 ft 474 kts 253°
2026-04-21 10:16 24.19501 55.39886 31705 ft 473 kts 253°
2026-04-21 10:17 24.18449 55.36478 32050 ft 472 kts 253°
2026-04-21 10:17 24.17392 55.33082 32389 ft 471 kts 253°
2026-04-21 10:17 24.16333 55.29701 32740 ft 469 kts 253°
2026-04-21 10:17 24.15272 55.26322 33065 ft 468 kts 253°
2026-04-21 10:18 24.14213 55.22960 33446 ft 466 kts 253°
2026-04-21 10:18 24.13159 55.19615 33724 ft 466 kts 253°
2026-04-21 10:18 24.12100 55.16251 33753 ft 469 kts 253°
2026-04-21 10:19 24.09977 55.09514 33773 ft 466 kts 253°
2026-04-21 10:19 24.07871 55.02851 33774 ft 462 kts 253°
2026-04-21 10:20 24.05772 54.96215 33778 ft 461 kts 253°
2026-04-21 10:20 24.03673 54.89589 33776 ft 461 kts 253°
2026-04-21 10:21 24.01570 54.82964 33775 ft 461 kts 253°
2026-04-21 10:21 23.99466 54.76347 33779 ft 461 kts 253°
2026-04-21 10:22 23.97355 54.69720 33780 ft 462 kts 253°
2026-04-21 10:22 23.95239 54.63088 33782 ft 462 kts 253°
2026-04-21 10:23 23.93117 54.56447 33782 ft 463 kts 253°
2026-04-21 10:23 23.90991 54.49806 33779 ft 463 kts 253°
2026-04-21 10:24 23.88862 54.43167 33785 ft 463 kts 253°
2026-04-21 10:24 23.86730 54.36527 33784 ft 463 kts 253°
2026-04-21 10:25 23.84597 54.29899 33786 ft 463 kts 253°
2026-04-21 10:25 23.82460 54.23267 33778 ft 462 kts 252°
2026-04-21 10:26 23.80339 54.16694 33785 ft 462 kts 252°
2026-04-21 10:26 23.78198 54.10071 33785 ft 463 kts 252°
2026-04-21 10:27 23.76052 54.03446 33780 ft 463 kts 252°
2026-04-21 10:27 23.73902 53.96820 33773 ft 463 kts 253°
2026-04-21 10:28 23.71749 53.90195 33785 ft 463 kts 253°
2026-04-21 10:28 23.69595 53.83574 33783 ft 463 kts 253°
2026-04-21 10:29 23.67437 53.76953 33788 ft 463 kts 253°
2026-04-21 10:29 23.65641 53.71453 33784 ft 463 kts 253°
2026-04-21 10:30 23.63480 53.64843 33781 ft 462 kts 253°
2026-04-21 10:30 23.61320 53.58248 33784 ft 461 kts 253°
2026-04-21 10:31 23.59162 53.51668 33786 ft 461 kts 253°
2026-04-21 10:31 23.57001 53.45090 33781 ft 460 kts 253°
2026-04-21 10:32 23.54841 53.38524 33787 ft 460 kts 253°
2026-04-21 10:32 23.52676 53.31956 33786 ft 460 kts 253°
2026-04-21 10:33 23.50508 53.25387 33782 ft 461 kts 253°
2026-04-21 10:33 23.48343 53.18838 33780 ft 458 kts 253°
2026-04-21 10:34 23.46185 53.12325 33778 ft 456 kts 253°
2026-04-21 10:34 23.44039 53.05852 33780 ft 454 kts 253°
2026-04-21 10:35 23.41897 52.99400 33777 ft 452 kts 253°
2026-04-21 10:35 23.39396 52.93104 33769 ft 456 kts 244°
2026-04-21 10:36 23.36257 52.87098 33770 ft 456 kts 244°
2026-04-21 10:36 23.33140 52.81081 33779 ft 457 kts 245°
2026-04-21 10:37 23.30035 52.75049 33784 ft 457 kts 245°
2026-04-21 10:37 23.26926 52.69007 33765 ft 458 kts 245°
2026-04-21 10:38 23.23814 52.62967 33761 ft 458 kts 245°
2026-04-21 10:38 23.20693 52.56919 33762 ft 459 kts 245°
2026-04-21 10:39 23.17760 52.50784 33774 ft 455 kts 251°
2026-04-21 10:39 23.15704 52.44333 33777 ft 452 kts 255°
2026-04-21 10:40 23.13694 52.37911 33769 ft 452 kts 255°
2026-04-21 10:40 23.11637 52.31463 33767 ft 452 kts 255°
2026-04-21 10:41 23.09581 52.25021 33771 ft 451 kts 255°
2026-04-21 10:41 23.07529 52.18588 33764 ft 451 kts 255°
2026-04-21 10:42 23.05479 52.12167 33764 ft 450 kts 255°
2026-04-21 10:42 23.03427 52.05750 33765 ft 450 kts 255°
2026-04-21 10:43 23.01376 51.99345 33767 ft 448 kts 255°
2026-04-21 10:43 22.99327 51.92957 33765 ft 447 kts 255°
2026-04-21 10:44 22.97282 51.86593 33765 ft 447 kts 255°
2026-04-21 10:44 22.95235 51.80231 33757 ft 446 kts 255°
2026-04-21 10:45 22.93189 51.73882 33763 ft 445 kts 255°
2026-04-21 10:45 22.91147 51.67551 33762 ft 445 kts 255°
2026-04-21 10:46 22.89098 51.61212 33763 ft 445 kts 255°
2026-04-21 10:46 22.87050 51.54881 33749 ft 445 kts 255°
2026-04-21 10:47 22.85217 51.48495 33749 ft 441 kts 262°
2026-04-21 10:47 22.84313 51.41942 33754 ft 438 kts 268°
2026-04-21 10:48 22.84172 51.35397 33759 ft 437 kts 272°
2026-04-21 10:48 22.84160 51.28800 33761 ft 438 kts 272°
2026-04-21 10:49 22.84137 51.22211 33752 ft 437 kts 272°
2026-04-21 10:49 22.84096 51.15625 33755 ft 436 kts 272°
2026-04-21 10:50 22.84047 51.09060 33755 ft 435 kts 272°
2026-04-21 10:50 22.83993 51.02498 33754 ft 435 kts 272°
2026-04-21 10:51 22.83938 50.95943 33761 ft 435 kts 272°
2026-04-21 10:51 22.83880 50.89388 33758 ft 435 kts 272°
2026-04-21 10:52 22.83819 50.82840 33755 ft 434 kts 272°
2026-04-21 10:52 22.83755 50.76293 33755 ft 434 kts 272°
2026-04-21 10:53 22.83690 50.69750 33774 ft 434 kts 272°
2026-04-21 10:53 22.83621 50.63207 33758 ft 434 kts 272°
2026-04-21 10:54 22.83550 50.56673 33759 ft 434 kts 272°
2026-04-21 10:54 22.83476 50.50135 33759 ft 433 kts 272°
2026-04-21 10:55 22.83399 50.43600 33757 ft 433 kts 272°
2026-04-21 10:55 22.83320 50.37116 33790 ft 433 kts 272°
2026-04-21 10:56 22.83239 50.30593 33761 ft 433 kts 271°
2026-04-21 10:56 22.83155 50.24078 33761 ft 432 kts 271°
2026-04-21 10:57 22.83068 50.17574 33756 ft 431 kts 272°
2026-04-21 10:57 22.82978 50.11073 33759 ft 431 kts 272°
2026-04-21 10:58 22.82886 50.04585 33762 ft 430 kts 272°
2026-04-21 10:58 22.82792 49.98096 33761 ft 431 kts 272°
2026-04-21 10:59 22.82695 49.91609 33761 ft 430 kts 272°
2026-04-21 10:59 22.82595 49.85130 33759 ft 430 kts 272°
2026-04-21 11:00 22.82493 49.78651 33758 ft 430 kts 272°
2026-04-21 11:00 22.82388 49.72178 33764 ft 429 kts 272°
2026-04-21 11:01 22.82282 49.65752 33761 ft 429 kts 272°
2026-04-21 11:01 22.82172 49.59289 33757 ft 429 kts 272°
2026-04-21 11:02 22.82003 49.49596 33779 ft 429 kts 271°
2026-04-21 11:02 22.81887 49.43138 33764 ft 429 kts 271°
2026-04-21 11:03 22.81768 49.36681 33759 ft 428 kts 271°
2026-04-21 11:03 22.81647 49.30232 33748 ft 428 kts 271°
2026-04-21 11:04 22.81523 49.23776 33758 ft 428 kts 271°
2026-04-21 11:04 22.81396 49.17328 33759 ft 428 kts 271°
2026-04-21 11:05 22.81267 49.10871 33757 ft 428 kts 271°
2026-04-21 11:05 22.81135 49.04420 33750 ft 429 kts 271°
2026-04-21 11:06 22.81001 48.97960 33767 ft 429 kts 271°
2026-04-21 11:06 22.80864 48.91496 33763 ft 429 kts 271°
2026-04-21 11:07 22.80724 48.85024 33766 ft 429 kts 271°
2026-04-21 11:07 22.80581 48.78550 33768 ft 430 kts 271°
2026-04-21 11:08 22.80436 48.72080 33770 ft 430 kts 271°
2026-04-21 11:08 22.80289 48.65603 33766 ft 430 kts 271°
2026-04-21 11:09 22.80138 48.59127 33766 ft 430 kts 271°
2026-04-21 11:09 22.79985 48.52652 33766 ft 430 kts 271°
2026-04-21 11:10 22.79829 48.46184 33765 ft 429 kts 271°
2026-04-21 11:10 22.79672 48.39757 33767 ft 429 kts 271°
2026-04-21 11:11 22.79511 48.33289 33766 ft 429 kts 271°
2026-04-21 11:11 22.79348 48.26822 33770 ft 430 kts 271°
2026-04-21 11:12 22.79182 48.20346 33756 ft 430 kts 271°
2026-04-21 11:12 22.79013 48.13861 33766 ft 431 kts 271°
2026-04-21 11:13 22.78841 48.07365 33773 ft 431 kts 271°
2026-04-21 11:13 22.78667 48.00865 33757 ft 432 kts 271°
2026-04-21 11:14 22.78489 47.94355 33770 ft 432 kts 271°
2026-04-21 11:14 22.78309 47.87845 33770 ft 432 kts 271°
2026-04-21 11:15 22.78126 47.81330 33787 ft 432 kts 271°
2026-04-21 11:15 22.77940 47.74823 33771 ft 432 kts 271°
2026-04-21 11:16 22.77752 47.68327 33773 ft 431 kts 271°
2026-04-21 11:16 22.77562 47.61835 33776 ft 431 kts 271°
2026-04-21 11:17 22.77370 47.55355 33774 ft 430 kts 271°
2026-04-21 11:17 22.77174 47.48878 33782 ft 430 kts 271°
2026-04-21 11:18 22.77011 47.43504 33783 ft 430 kts 271°
2026-04-21 11:18 22.76811 47.37033 33774 ft 430 kts 271°
2026-04-21 11:19 22.76609 47.30557 33786 ft 430 kts 271°
2026-04-21 11:19 22.76405 47.24075 33798 ft 431 kts 271°
2026-04-21 11:20 22.76246 47.17582 33775 ft 431 kts 273°
2026-04-21 11:20 22.76709 47.11133 33794 ft 430 kts 277°
2026-04-21 11:21 22.77242 47.04677 33815 ft 430 kts 277°
2026-04-21 11:21 22.77757 46.98214 33795 ft 430 kts 277°
2026-04-21 11:22 22.78267 46.91757 33792 ft 430 kts 276°
2026-04-21 11:22 22.78773 46.85303 33793 ft 430 kts 276°
2026-04-21 11:23 22.79278 46.78859 33798 ft 429 kts 276°
2026-04-21 11:23 22.79779 46.72410 33809 ft 429 kts 276°
2026-04-21 11:24 22.80274 46.66017 33806 ft 429 kts 276°
2026-04-21 11:24 22.80774 46.59528 33811 ft 429 kts 276°
2026-04-21 11:25 22.81264 46.53131 33816 ft 429 kts 276°
2026-04-21 11:25 22.81755 46.46691 33817 ft 429 kts 276°
2026-04-21 11:26 22.82243 46.40249 33808 ft 428 kts 276°
2026-04-21 11:26 22.82725 46.33816 33807 ft 428 kts 276°
2026-04-21 11:27 22.83198 46.27389 33823 ft 427 kts 276°
2026-04-21 11:27 22.83669 46.20963 33801 ft 428 kts 276°
2026-04-21 11:28 22.84137 46.14536 33792 ft 428 kts 276°
2026-04-21 11:28 22.84603 46.08105 33787 ft 428 kts 276°
2026-04-21 11:29 22.85070 46.01669 33800 ft 428 kts 276°
2026-04-21 11:29 22.85533 45.95230 33792 ft 428 kts 276°
2026-04-21 11:30 22.85992 45.88799 33789 ft 428 kts 276°
2026-04-21 11:30 22.86447 45.82377 33787 ft 427 kts 276°
2026-04-21 11:31 22.86899 45.75973 33773 ft 426 kts 276°
2026-04-21 11:31 22.87349 45.69567 33805 ft 426 kts 276°
2026-04-21 11:32 22.87797 45.63160 33784 ft 426 kts 276°
2026-04-21 11:32 22.88243 45.56740 33797 ft 427 kts 276°
2026-04-21 11:33 22.88685 45.50321 33786 ft 427 kts 276°
2026-04-21 11:33 22.89127 45.43887 33783 ft 428 kts 276°
2026-04-21 11:34 22.89566 45.37448 33814 ft 428 kts 275°
2026-04-21 11:34 22.90001 45.31008 33788 ft 427 kts 275°
2026-04-21 11:35 22.90434 45.24596 33789 ft 425 kts 275°
2026-04-21 11:35 22.90861 45.18214 33785 ft 423 kts 275°
2026-04-21 11:36 22.91285 45.11855 33798 ft 422 kts 275°
2026-04-21 11:36 22.91705 45.05506 33794 ft 422 kts 275°
2026-04-21 11:37 22.92121 44.99189 33790 ft 423 kts 275°
2026-04-21 11:37 22.92540 44.92816 33798 ft 424 kts 275°
2026-04-21 11:38 22.92956 44.86422 33799 ft 425 kts 275°
2026-04-21 11:38 22.93371 44.80019 33793 ft 426 kts 275°
2026-04-21 11:39 22.93785 44.73611 33794 ft 426 kts 275°
2026-04-21 11:39 22.94502 44.67247 33814 ft 425 kts 281°
2026-04-21 11:40 22.96028 44.61048 33812 ft 425 kts 287°
2026-04-21 11:40 22.97928 44.54973 33799 ft 425 kts 287°
2026-04-21 11:41 22.99821 44.48900 33794 ft 425 kts 287°
2026-04-21 11:41 23.01701 44.42825 33798 ft 425 kts 287°
2026-04-21 11:42 23.03574 44.36745 33797 ft 424 kts 287°
2026-04-21 11:42 23.05441 44.30672 33800 ft 424 kts 287°
2026-04-21 11:43 23.07305 44.24598 33799 ft 424 kts 287°
2026-04-21 11:43 23.09165 44.18527 33802 ft 423 kts 287°
2026-04-21 11:44 23.11007 44.12509 33796 ft 423 kts 287°
2026-04-21 11:44 23.12857 44.06455 33798 ft 422 kts 287°
2026-04-21 11:45 23.14702 44.00408 33819 ft 421 kts 287°
2026-04-21 11:45 23.16540 43.94374 33810 ft 420 kts 287°
2026-04-21 11:46 23.18373 43.88348 33814 ft 420 kts 286°
2026-04-21 11:46 23.20202 43.82321 33833 ft 420 kts 286°
2026-04-21 11:47 23.22032 43.76288 33829 ft 420 kts 286°
2026-04-21 11:47 23.23860 43.70249 33833 ft 421 kts 286°
2026-04-21 11:48 23.25687 43.64204 33840 ft 421 kts 286°
2026-04-21 11:48 23.27513 43.58155 33855 ft 421 kts 286°
2026-04-21 11:49 23.29332 43.52113 33845 ft 420 kts 286°
2026-04-21 11:49 23.31144 43.46081 33857 ft 419 kts 286°
2026-04-21 11:50 23.32950 43.40059 33873 ft 418 kts 286°
2026-04-21 11:50 23.34749 43.34048 33877 ft 417 kts 286°
2026-04-21 11:51 23.36540 43.28055 33882 ft 416 kts 286°
2026-04-21 11:51 23.38329 43.22060 33898 ft 416 kts 286°
2026-04-21 11:52 23.40118 43.16058 33889 ft 417 kts 286°
2026-04-21 11:52 23.41901 43.10057 33902 ft 417 kts 285°
2026-04-21 11:53 23.43661 43.04094 33900 ft 416 kts 285°
2026-04-21 11:53 23.45444 42.98049 33910 ft 416 kts 285°
2026-04-21 11:54 23.47198 42.92095 33901 ft 416 kts 285°
2026-04-21 11:54 23.48962 42.86096 33905 ft 415 kts 285°
2026-04-21 11:55 23.50721 42.80105 33905 ft 415 kts 285°
2026-04-21 11:55 23.52480 42.74111 33903 ft 415 kts 285°
2026-04-21 11:56 23.54250 42.68116 33901 ft 415 kts 285°
2026-04-21 11:56 23.56021 42.62122 33903 ft 416 kts 285°
2026-04-21 11:57 23.57788 42.56127 33910 ft 415 kts 285°
2026-04-21 11:57 23.59552 42.50129 33902 ft 415 kts 285°
2026-04-21 11:58 23.61309 42.44142 33901 ft 414 kts 285°
2026-04-21 11:58 23.63061 42.38166 33913 ft 414 kts 285°
2026-04-21 11:59 23.64808 42.32197 33900 ft 413 kts 285°
2026-04-21 11:59 23.66547 42.26233 33901 ft 412 kts 285°
2026-04-21 12:00 23.68264 42.20277 33912 ft 412 kts 285°
2026-04-21 12:00 23.69965 42.14358 33908 ft 412 kts 285°
2026-04-21 12:01 23.71678 42.08395 33899 ft 412 kts 285°
2026-04-21 12:01 23.73387 42.02439 33899 ft 411 kts 285°
2026-04-21 12:02 23.75966 41.93501 33902 ft 411 kts 285°
2026-04-21 12:03 23.77700 41.87548 33901 ft 412 kts 285°
2026-04-21 12:03 23.79430 41.81590 33899 ft 412 kts 285°
2026-04-21 12:04 23.81156 41.75626 33890 ft 412 kts 285°
2026-04-21 12:04 23.82872 41.69655 33897 ft 412 kts 285°
2026-04-21 12:05 23.84588 41.63674 33892 ft 413 kts 285°
2026-04-21 12:05 23.86305 41.57685 33893 ft 413 kts 285°
2026-04-21 12:06 23.88019 41.51690 33894 ft 413 kts 284°
2026-04-21 12:06 23.89728 41.45694 33890 ft 413 kts 284°
2026-04-21 12:07 23.91149 41.40706 33895 ft 413 kts 284°
2026-04-21 12:07 23.92855 41.34707 33902 ft 413 kts 284°
2026-04-21 12:08 23.94558 41.28705 33893 ft 413 kts 284°
2026-04-21 12:08 23.96257 41.22709 33892 ft 413 kts 284°
2026-04-21 12:09 23.97952 41.16717 33895 ft 412 kts 284°
2026-04-21 12:09 23.99642 41.10728 33908 ft 412 kts 284°
2026-04-21 12:10 24.01329 41.04744 33900 ft 412 kts 284°
2026-04-21 12:10 24.03012 40.98762 33905 ft 411 kts 284°
2026-04-21 12:11 24.04694 40.92777 33900 ft 412 kts 284°
2026-04-21 12:11 24.06372 40.86786 33890 ft 412 kts 284°
2026-04-21 12:12 24.08049 40.80789 33895 ft 412 kts 284°
2026-04-21 12:12 24.09725 40.74787 33894 ft 413 kts 284°
2026-04-21 12:13 24.11400 40.68779 33908 ft 413 kts 284°
2026-04-21 12:13 24.13073 40.62768 33894 ft 413 kts 284°
2026-04-21 12:14 24.14735 40.56786 33894 ft 413 kts 284°
2026-04-21 12:14 24.16618 40.50834 33894 ft 416 kts 289°
2026-04-21 12:15 24.19221 40.45153 33896 ft 418 kts 293°
2026-04-21 12:15 24.21935 40.39519 33900 ft 418 kts 293°
2026-04-21 12:16 24.24638 40.33873 33915 ft 418 kts 293°
2026-04-21 12:16 24.27333 40.28227 33899 ft 418 kts 293°
2026-04-21 12:17 24.30022 40.22586 33910 ft 418 kts 293°
2026-04-21 12:17 24.32713 40.16934 33907 ft 418 kts 293°
2026-04-21 12:18 24.35404 40.11277 33918 ft 418 kts 293°
2026-04-21 12:18 24.38091 40.05619 33920 ft 418 kts 293°
2026-04-21 12:19 24.40779 39.99955 33922 ft 419 kts 293°
2026-04-21 12:19 24.43469 39.94277 33915 ft 419 kts 293°
2026-04-21 12:20 24.46154 39.88605 33914 ft 419 kts 293°
2026-04-21 12:20 24.48839 39.82924 33914 ft 419 kts 293°
2026-04-21 12:21 24.51524 39.77238 33923 ft 420 kts 293°
2026-04-21 12:21 24.54574 39.71734 33917 ft 426 kts 300°
2026-04-21 12:22 24.58307 39.66646 33908 ft 431 kts 306°
2026-04-21 12:22 24.62601 39.62008 33941 ft 433 kts 309°
2026-04-21 12:23 24.66962 39.57434 33935 ft 433 kts 309°
2026-04-21 12:23 24.71280 39.52886 33929 ft 433 kts 309°
2026-04-21 12:24 24.75617 39.48291 33916 ft 435 kts 309°
2026-04-21 12:24 24.79953 39.43668 33921 ft 433 kts 308°
2026-04-21 12:25 24.84272 39.39056 33911 ft 432 kts 308°
2026-04-21 12:25 24.88583 39.34455 33933 ft 431 kts 308°
2026-04-21 12:26 24.92893 39.29849 33930 ft 432 kts 308°
2026-04-21 12:26 24.97205 39.25235 33924 ft 432 kts 308°
2026-04-21 12:27 25.01518 39.20619 33918 ft 432 kts 308°
2026-04-21 12:27 25.05822 39.16004 33926 ft 431 kts 308°
2026-04-21 12:28 25.10125 39.11389 33914 ft 431 kts 308°
2026-04-21 12:28 25.14421 39.06772 33907 ft 431 kts 308°
2026-04-21 12:29 25.18719 39.02150 33913 ft 431 kts 308°
2026-04-21 12:29 25.23013 38.97527 33920 ft 431 kts 308°
2026-04-21 12:30 25.27294 38.92908 33915 ft 429 kts 308°
2026-04-21 12:30 25.31574 38.88299 33915 ft 430 kts 308°
2026-04-21 12:31 25.35839 38.83699 33898 ft 432 kts 308°
2026-04-21 12:31 25.40149 38.79035 33886 ft 434 kts 308°
2026-04-21 12:32 25.44469 38.74358 33875 ft 435 kts 308°
2026-04-21 12:32 25.48801 38.69668 33865 ft 435 kts 308°
2026-04-21 12:33 25.53115 38.64992 33877 ft 434 kts 308°
2026-04-21 12:33 25.57432 38.60304 33862 ft 434 kts 308°
2026-04-21 12:34 25.61744 38.55618 33866 ft 435 kts 308°
2026-04-21 12:34 25.66064 38.50918 33879 ft 435 kts 308°
2026-04-21 12:35 25.70384 38.46213 33867 ft 436 kts 308°
2026-04-21 12:35 25.74708 38.41501 33862 ft 436 kts 308°
2026-04-21 12:36 25.79025 38.36790 33862 ft 435 kts 308°
2026-04-21 12:36 25.83343 38.32074 33866 ft 435 kts 308°
2026-04-21 12:37 25.87656 38.27355 33864 ft 435 kts 308°
2026-04-21 12:37 25.91965 38.22637 33863 ft 435 kts 308°
2026-04-21 12:38 25.96271 38.17915 33877 ft 435 kts 308°
2026-04-21 12:38 26.00584 38.13186 33899 ft 436 kts 308°
2026-04-21 12:39 26.04909 38.08433 33885 ft 437 kts 308°
2026-04-21 12:39 26.09231 38.03679 33884 ft 437 kts 308°
2026-04-21 12:40 26.13544 37.98933 33886 ft 436 kts 308°
2026-04-21 12:40 26.17818 37.94225 33868 ft 435 kts 308°
2026-04-21 12:41 26.22118 37.89478 33895 ft 435 kts 308°
2026-04-21 12:41 26.26418 37.84733 33908 ft 434 kts 308°
2026-04-21 12:42 26.30709 37.79983 33900 ft 435 kts 308°
2026-04-21 12:42 26.35016 37.75220 33897 ft 437 kts 308°
2026-04-21 12:43 26.39311 37.70444 33920 ft 438 kts 308°
2026-04-21 12:43 26.43649 37.65639 33916 ft 440 kts 308°
2026-04-21 12:44 26.47993 37.60818 33918 ft 441 kts 308°
2026-04-21 12:44 26.52339 37.55988 33903 ft 440 kts 308°
2026-04-21 12:45 26.56674 37.51162 33923 ft 440 kts 308°
2026-04-21 12:45 26.61009 37.46332 33931 ft 440 kts 308°
2026-04-21 12:46 26.65329 37.41517 33911 ft 438 kts 307°
2026-04-21 12:46 26.69632 37.36708 33917 ft 436 kts 307°
2026-04-21 12:47 26.73918 37.31913 33934 ft 435 kts 307°
2026-04-21 12:47 26.78199 37.27119 33909 ft 435 kts 307°
2026-04-21 12:48 26.82470 37.22332 33912 ft 435 kts 307°
2026-04-21 12:48 26.86742 37.17539 33905 ft 435 kts 307°
2026-04-21 12:49 26.91014 37.12740 33907 ft 435 kts 307°
2026-04-21 12:49 26.95294 37.07925 33905 ft 436 kts 307°
2026-04-21 12:50 26.99571 37.03100 33918 ft 437 kts 307°
2026-04-21 12:50 27.03868 36.98270 33922 ft 438 kts 307°
2026-04-21 12:51 27.08141 36.93450 33913 ft 438 kts 307°
2026-04-21 12:51 27.12434 36.88597 33904 ft 438 kts 307°
2026-04-21 12:52 27.16722 36.83748 33898 ft 437 kts 307°
2026-04-21 12:52 27.20988 36.78917 33902 ft 435 kts 307°
2026-04-21 12:53 27.25246 36.74090 33912 ft 434 kts 307°
2026-04-21 12:53 27.29495 36.69265 33903 ft 435 kts 307°
2026-04-21 12:54 27.33756 36.64421 33902 ft 436 kts 307°
2026-04-21 12:54 27.38029 36.59563 33903 ft 437 kts 307°
2026-04-21 12:55 27.42305 36.54691 33901 ft 437 kts 307°
2026-04-21 12:55 27.46570 36.49830 33911 ft 436 kts 307°
2026-04-21 12:56 27.50114 36.45784 33906 ft 436 kts 307°
2026-04-21 12:56 27.54370 36.40920 33903 ft 435 kts 307°
2026-04-21 12:57 27.58606 36.36066 33878 ft 433 kts 307°
2026-04-21 12:57 27.62825 36.31232 33880 ft 433 kts 307°
2026-04-21 12:58 27.67050 36.26395 33916 ft 434 kts 307°
2026-04-21 12:58 27.71281 36.21537 33948 ft 435 kts 307°
2026-04-21 12:59 27.75537 36.16645 33932 ft 439 kts 307°
2026-04-21 12:59 27.79809 36.11729 33909 ft 436 kts 307°
2026-04-21 13:00 27.84034 36.06870 33941 ft 432 kts 307°
2026-04-21 13:00 27.88236 36.02021 33919 ft 431 kts 306°
2026-04-21 13:01 27.92422 35.97184 33923 ft 430 kts 306°
2026-04-21 13:01 27.96579 35.92374 33925 ft 431 kts 306°
2026-04-21 13:02 28.00798 35.87488 33917 ft 432 kts 306°
2026-04-21 13:02 28.07086 35.80204 33910 ft 435 kts 306°
2026-04-21 13:03 28.11304 35.75300 33933 ft 435 kts 306°
2026-04-21 13:03 28.15525 35.70393 33936 ft 435 kts 306°
2026-04-21 13:04 28.19754 35.65471 33922 ft 435 kts 306°
2026-04-21 13:04 28.23978 35.60548 33905 ft 435 kts 306°
2026-04-21 13:05 28.28192 35.55634 33923 ft 434 kts 306°
2026-04-21 13:05 28.32391 35.50731 33940 ft 433 kts 306°
2026-04-21 13:06 28.36590 35.45817 33918 ft 433 kts 306°
2026-04-21 13:06 28.40785 35.40907 33903 ft 433 kts 306°
2026-04-21 13:07 28.44933 35.36051 33906 ft 431 kts 306°
2026-04-21 13:07 28.49095 35.31158 33908 ft 431 kts 306°
2026-04-21 13:08 28.53271 35.26251 33910 ft 432 kts 306°
2026-04-21 13:08 28.57460 35.21319 33926 ft 434 kts 306°
2026-04-21 13:09 28.61655 35.16375 33901 ft 435 kts 306°
2026-04-21 13:09 28.65851 35.11435 33909 ft 433 kts 306°
2026-04-21 13:10 28.70027 35.06504 33949 ft 431 kts 306°
2026-04-21 13:10 28.74195 35.01573 33929 ft 433 kts 306°
2026-04-21 13:11 28.78370 34.96626 33908 ft 433 kts 306°
2026-04-21 13:11 28.82539 34.91696 33917 ft 433 kts 306°
2026-04-21 13:12 28.86703 34.86736 33933 ft 434 kts 306°
2026-04-21 13:12 28.90895 34.81757 33942 ft 435 kts 306°
2026-04-21 13:13 28.95087 34.76774 33975 ft 434 kts 306°
2026-04-21 13:13 28.99267 34.71795 33959 ft 434 kts 306°
2026-04-21 13:14 29.03630 34.66995 33953 ft 440 kts 312°
2026-04-21 13:14 29.08637 34.62877 34228 ft 445 kts 317°
2026-04-21 13:15 29.11221 34.60940 34541 ft 443 kts 318°
2026-04-21 13:15 29.13806 34.59022 34836 ft 443 kts 318°
2026-04-21 13:15 29.16381 34.57101 35075 ft 443 kts 317°
2026-04-21 13:15 29.18949 34.55170 35429 ft 440 kts 317°
2026-04-21 13:16 29.21458 34.53272 35796 ft 437 kts 317°
2026-04-21 13:16 29.24026 34.51318 35898 ft 439 kts 317°
2026-04-21 13:16 29.29122 34.47434 35983 ft 440 kts 317°
2026-04-21 13:17 29.34177 34.43583 35960 ft 439 kts 317°
2026-04-21 13:17 29.39247 34.39716 35973 ft 437 kts 317°
2026-04-21 13:18 29.44303 34.35856 35968 ft 436 kts 317°
2026-04-21 13:18 29.49351 34.31996 35989 ft 436 kts 317°
2026-04-21 13:19 29.54401 34.28130 35994 ft 437 kts 317°
2026-04-21 13:19 29.59463 34.24252 36007 ft 438 kts 317°
2026-04-21 13:20 29.64809 34.20742 36001 ft 446 kts 323°
2026-04-21 13:20 29.70307 34.17437 35993 ft 446 kts 323°
2026-04-21 13:21 29.75803 34.14119 35994 ft 446 kts 322°
2026-04-21 13:21 29.81289 34.10784 35997 ft 446 kts 322°
2026-04-21 13:22 29.86776 34.07438 35991 ft 446 kts 322°
2026-04-21 13:22 29.92256 34.04089 35999 ft 446 kts 323°
2026-04-21 13:23 29.97732 34.00741 35993 ft 445 kts 323°
2026-04-21 13:23 30.03200 33.97393 35997 ft 445 kts 323°
2026-04-21 13:24 30.08663 33.94043 36005 ft 445 kts 323°
2026-04-21 13:24 30.14128 33.90688 36000 ft 445 kts 323°
2026-04-21 13:25 30.19597 33.87326 36000 ft 446 kts 323°
2026-04-21 13:25 30.25038 33.83978 36002 ft 446 kts 323°
2026-04-21 13:26 30.30515 33.80603 36002 ft 446 kts 323°
2026-04-21 13:26 30.35994 33.77223 36010 ft 446 kts 323°
2026-04-21 13:27 30.41475 33.73837 36008 ft 447 kts 323°
2026-04-21 13:27 30.46958 33.70445 36030 ft 447 kts 323°
2026-04-21 13:28 30.52447 33.67046 36026 ft 448 kts 323°
2026-04-21 13:28 30.57942 33.63638 36026 ft 448 kts 323°
2026-04-21 13:29 30.63438 33.60225 36014 ft 448 kts 323°
2026-04-21 13:29 30.68930 33.56811 36033 ft 448 kts 323°
2026-04-21 13:30 30.74424 33.53391 36044 ft 448 kts 323°
2026-04-21 13:30 30.79927 33.49959 36045 ft 449 kts 323°
2026-04-21 13:31 30.85433 33.46523 36034 ft 449 kts 323°
2026-04-21 13:31 30.90940 33.43081 36037 ft 449 kts 323°
2026-04-21 13:32 30.96436 33.39643 36036 ft 448 kts 323°
2026-04-21 13:32 31.01931 33.36199 36038 ft 448 kts 323°
2026-04-21 13:33 31.07258 33.32507 36051 ft 443 kts 319°
2026-04-21 13:33 31.12354 33.28486 36038 ft 442 kts 318°
2026-04-21 13:34 31.17404 33.24475 36041 ft 442 kts 318°
2026-04-21 13:34 31.22500 33.20465 36040 ft 442 kts 319°
2026-04-21 13:35 31.27614 33.16460 36040 ft 442 kts 319°
2026-04-21 13:35 31.32725 33.12457 36051 ft 443 kts 319°
2026-04-21 13:36 31.37880 33.08414 36042 ft 443 kts 319°
2026-04-21 13:36 31.42964 33.04422 36038 ft 443 kts 319°
2026-04-21 13:37 31.48089 33.00391 36038 ft 444 kts 319°
2026-04-21 13:37 31.53210 32.96358 36035 ft 444 kts 319°
2026-04-21 13:38 31.58335 32.92316 36033 ft 444 kts 319°
2026-04-21 13:38 31.63454 32.88273 36065 ft 444 kts 319°
2026-04-21 13:39 31.68577 32.84222 36040 ft 444 kts 319°
2026-04-21 13:39 31.73691 32.80173 36037 ft 443 kts 319°
2026-04-21 13:40 31.78801 32.76121 36035 ft 443 kts 319°
2026-04-21 13:40 31.83904 32.72069 36032 ft 443 kts 319°
2026-04-21 13:41 31.89008 32.68011 36030 ft 442 kts 319°
2026-04-21 13:41 31.94102 32.63955 36051 ft 442 kts 319°
2026-04-21 13:42 31.99201 32.59889 36032 ft 443 kts 319°
2026-04-21 13:42 32.04303 32.55816 36030 ft 443 kts 319°
2026-04-21 13:43 32.09408 32.51735 36030 ft 443 kts 319°
2026-04-21 13:43 32.14513 32.47649 36028 ft 443 kts 319°
2026-04-21 13:44 32.18753 32.44249 36032 ft 444 kts 319°
2026-04-21 13:44 32.23860 32.40150 36063 ft 444 kts 319°
2026-04-21 13:45 32.28971 32.36043 36035 ft 444 kts 319°
2026-04-21 13:45 32.34080 32.31931 36026 ft 444 kts 319°
2026-04-21 13:46 32.39191 32.27812 36031 ft 444 kts 319°
2026-04-21 13:46 32.44304 32.23685 36030 ft 445 kts 319°
2026-04-21 13:47 32.49411 32.19557 36030 ft 445 kts 319°
2026-04-21 13:47 32.54525 32.15418 36043 ft 445 kts 320°
2026-04-21 13:48 32.59635 32.11276 36031 ft 445 kts 320°
2026-04-21 13:48 32.64599 32.06941 36023 ft 440 kts 313°
2026-04-21 13:49 32.69046 32.01990 36025 ft 438 kts 311°
2026-04-21 13:49 32.73484 31.97022 36022 ft 439 kts 311°
2026-04-21 13:50 32.77935 31.92055 36025 ft 439 kts 311°
2026-04-21 13:50 32.82361 31.87123 36025 ft 440 kts 312°
2026-04-21 13:51 32.86825 31.82143 36031 ft 440 kts 312°
2026-04-21 13:51 32.91292 31.77154 36025 ft 441 kts 312°
2026-04-21 13:52 32.95760 31.72156 36025 ft 441 kts 312°
2026-04-21 13:52 33.00229 31.67150 36022 ft 441 kts 312°
2026-04-21 13:53 33.04696 31.62138 36021 ft 441 kts 312°
2026-04-21 13:53 33.09159 31.57124 36022 ft 441 kts 312°
2026-04-21 13:54 33.13620 31.52103 36023 ft 441 kts 312°
2026-04-21 13:54 33.18083 31.47074 36051 ft 441 kts 312°
2026-04-21 13:55 33.22545 31.42037 36027 ft 442 kts 312°
2026-04-21 13:55 33.27008 31.36993 36020 ft 442 kts 312°
2026-04-21 13:56 33.31466 31.31947 36022 ft 441 kts 312°
2026-04-21 13:56 33.35923 31.26895 36021 ft 441 kts 312°
2026-04-21 13:57 33.40374 31.21841 36020 ft 441 kts 312°
2026-04-21 13:57 33.44795 31.16814 36022 ft 441 kts 312°
2026-04-21 13:58 33.49242 31.11751 36021 ft 441 kts 312°
2026-04-21 13:58 33.53691 31.06677 36021 ft 442 kts 312°
2026-04-21 13:59 33.58141 31.01594 36027 ft 442 kts 312°
2026-04-21 13:59 33.62590 30.96506 36022 ft 442 kts 312°
2026-04-21 14:00 33.67040 30.91408 36020 ft 443 kts 312°
2026-04-21 14:00 33.71496 30.86296 36019 ft 443 kts 312°
2026-04-21 14:01 33.75949 30.81180 36024 ft 443 kts 312°
2026-04-21 14:01 33.80407 30.76050 36015 ft 443 kts 312°
2026-04-21 14:02 33.84861 30.70917 36036 ft 444 kts 312°
2026-04-21 14:03 33.91513 30.63236 36024 ft 444 kts 312°
2026-04-21 14:03 33.95968 30.58082 36016 ft 444 kts 312°
2026-04-21 14:04 34.00418 30.52926 36014 ft 444 kts 312°
2026-04-21 14:04 34.04865 30.47766 36013 ft 444 kts 312°
2026-04-21 14:05 34.09307 30.42604 36020 ft 443 kts 312°
2026-04-21 14:05 34.13747 30.37436 36018 ft 443 kts 312°
2026-04-21 14:06 34.18186 30.32260 36027 ft 443 kts 312°
2026-04-21 14:06 34.22622 30.27081 36014 ft 444 kts 312°
2026-04-21 14:07 34.27059 30.21892 36010 ft 444 kts 312°
2026-04-21 14:07 34.31491 30.16701 36011 ft 444 kts 312°
2026-04-21 14:08 34.35922 30.11503 36011 ft 443 kts 312°
2026-04-21 14:08 34.40347 30.06303 36013 ft 444 kts 312°
2026-04-21 14:09 34.44774 30.01094 36009 ft 444 kts 312°
2026-04-21 14:09 34.49149 29.95829 36008 ft 443 kts 311°
2026-04-21 14:10 34.53460 29.90482 36007 ft 443 kts 311°
2026-04-21 14:10 34.57767 29.85134 36004 ft 443 kts 311°
2026-04-21 14:11 34.62082 29.79789 36001 ft 443 kts 311°
2026-04-21 14:11 34.66397 29.74444 36003 ft 443 kts 311°
2026-04-21 14:12 34.70716 29.69086 36009 ft 444 kts 311°
2026-04-21 14:12 34.75032 29.63723 36007 ft 444 kts 311°
2026-04-21 14:13 34.79348 29.58351 36006 ft 444 kts 311°
2026-04-21 14:13 34.83663 29.52971 36020 ft 444 kts 311°
2026-04-21 14:14 34.87979 29.47582 36011 ft 444 kts 311°
2026-04-21 14:14 34.92289 29.42190 35992 ft 444 kts 311°
2026-04-21 14:15 34.96570 29.36828 36009 ft 444 kts 311°
2026-04-21 14:15 35.01087 29.31682 36008 ft 447 kts 319°
2026-04-21 14:16 35.06088 29.27155 36002 ft 448 kts 320°
2026-04-21 14:16 35.11093 29.22636 36003 ft 447 kts 319°
2026-04-21 14:17 35.16083 29.18094 36022 ft 447 kts 319°
2026-04-21 14:17 35.21070 29.13531 36000 ft 447 kts 319°
2026-04-21 14:18 35.26049 29.08965 35999 ft 447 kts 319°
2026-04-21 14:18 35.31026 29.04394 36000 ft 447 kts 319°
2026-04-21 14:19 35.35996 28.99822 35993 ft 447 kts 319°
2026-04-21 14:19 35.40965 28.95244 35995 ft 447 kts 319°
2026-04-21 14:20 35.45934 28.90660 36007 ft 447 kts 319°
2026-04-21 14:20 35.50898 28.86071 35995 ft 447 kts 319°
2026-04-21 14:21 35.55864 28.81475 35994 ft 447 kts 319°
2026-04-21 14:21 35.60824 28.76877 35992 ft 447 kts 319°
2026-04-21 14:22 35.65779 28.72275 35991 ft 446 kts 319°
2026-04-21 14:22 35.70731 28.67670 35986 ft 446 kts 319°
2026-04-21 14:23 35.75680 28.63059 36004 ft 446 kts 319°
2026-04-21 14:23 35.80597 28.58471 35988 ft 446 kts 319°
2026-04-21 14:24 35.85541 28.53851 35991 ft 446 kts 319°
2026-04-21 14:24 35.90479 28.49229 35982 ft 445 kts 319°
2026-04-21 14:25 35.95408 28.44606 35977 ft 445 kts 319°
2026-04-21 14:25 36.00337 28.39978 35985 ft 445 kts 319°
2026-04-21 14:26 36.05263 28.35348 35988 ft 445 kts 319°
2026-04-21 14:26 36.10189 28.30715 35978 ft 445 kts 319°
2026-04-21 14:27 36.15110 28.26078 35975 ft 445 kts 319°
2026-04-21 14:27 36.20026 28.21437 35975 ft 444 kts 319°
2026-04-21 14:28 36.24937 28.16792 35975 ft 444 kts 319°
2026-04-21 14:28 36.29848 28.12141 35966 ft 444 kts 319°
2026-04-21 14:29 36.34710 28.07430 35975 ft 442 kts 315°
2026-04-21 14:29 36.39221 28.02253 35970 ft 442 kts 313°
2026-04-21 14:30 36.43700 27.97039 35966 ft 442 kts 313°
2026-04-21 14:30 36.48187 27.91828 35969 ft 442 kts 313°
2026-04-21 14:31 36.52677 27.86622 35972 ft 442 kts 313°
2026-04-21 14:31 36.57170 27.81409 35971 ft 442 kts 313°
2026-04-21 14:32 36.61664 27.76185 35974 ft 442 kts 313°
2026-04-21 14:32 36.66126 27.70991 35982 ft 442 kts 313°
2026-04-21 14:33 36.70617 27.65752 35966 ft 442 kts 313°
2026-04-21 14:33 36.75097 27.60518 35964 ft 441 kts 313°
2026-04-21 14:34 36.79570 27.55285 35973 ft 441 kts 313°
2026-04-21 14:34 36.83324 27.50885 35974 ft 442 kts 313°
2026-04-21 14:35 36.87804 27.45624 35967 ft 443 kts 313°
2026-04-21 14:35 36.92258 27.40386 35972 ft 443 kts 313°
2026-04-21 14:36 36.96748 27.35098 35984 ft 444 kts 313°
2026-04-21 14:36 37.01238 27.29802 35972 ft 444 kts 313°
2026-04-21 14:37 37.05728 27.24494 35968 ft 444 kts 313°
2026-04-21 14:37 37.10213 27.19184 35964 ft 443 kts 313°
2026-04-21 14:38 37.14690 27.13875 35970 ft 443 kts 313°
2026-04-21 14:38 37.19157 27.08568 35965 ft 442 kts 313°
2026-04-21 14:39 37.23616 27.03261 35963 ft 441 kts 313°
2026-04-21 14:39 37.28067 26.97954 35963 ft 441 kts 313°
2026-04-21 14:40 37.32512 26.92646 35964 ft 441 kts 313°
2026-04-21 14:40 37.36952 26.87335 35975 ft 440 kts 313°
2026-04-21 14:41 37.41441 26.82083 35957 ft 441 kts 315°
2026-04-21 14:41 37.46108 26.77063 35957 ft 442 kts 316°
2026-04-21 14:42 37.50796 26.72058 35953 ft 442 kts 316°
2026-04-21 14:42 37.55469 26.67026 35954 ft 442 kts 316°
2026-04-21 14:43 37.60137 26.61974 35953 ft 442 kts 316°
2026-04-21 14:43 37.64802 26.56917 35955 ft 442 kts 316°
2026-04-21 14:44 37.69467 26.51851 35955 ft 442 kts 316°
2026-04-21 14:44 37.74124 26.46770 35956 ft 442 kts 316°
2026-04-21 14:45 37.78776 26.41680 35959 ft 442 kts 315°
2026-04-21 14:45 37.83427 26.36584 35974 ft 442 kts 316°
2026-04-21 14:46 37.88081 26.31480 35958 ft 443 kts 316°
2026-04-21 14:46 37.92706 26.26417 35952 ft 443 kts 316°
2026-04-21 14:47 37.97360 26.21315 35951 ft 442 kts 316°
2026-04-21 14:47 38.02008 26.16207 35949 ft 442 kts 316°
2026-04-21 14:48 38.06646 26.11102 35945 ft 441 kts 316°
2026-04-21 14:48 38.11285 26.05991 35944 ft 441 kts 315°
2026-04-21 14:49 38.15918 26.00878 35944 ft 441 kts 315°
2026-04-21 14:49 38.20548 25.95757 35944 ft 441 kts 315°
2026-04-21 14:50 38.24395 25.91497 35937 ft 441 kts 316°
2026-04-21 14:50 38.30046 25.85833 35937 ft 443 kts 319°
2026-04-21 14:51 38.34960 25.81092 35940 ft 443 kts 319°
2026-04-21 14:51 38.39845 25.76304 35951 ft 443 kts 319°
2026-04-21 14:52 38.44721 25.71485 35939 ft 444 kts 319°
2026-04-21 14:52 38.49623 25.66680 35934 ft 444 kts 319°
2026-04-21 14:53 38.54534 25.61886 35928 ft 444 kts 319°
2026-04-21 14:53 38.59436 25.57086 35929 ft 444 kts 319°
2026-04-21 14:54 38.64338 25.52278 35920 ft 444 kts 319°
2026-04-21 14:54 38.69231 25.47464 35931 ft 444 kts 319°
2026-04-21 14:55 38.74129 25.42636 35925 ft 444 kts 319°
2026-04-21 14:55 38.79024 25.37803 35920 ft 444 kts 319°
2026-04-21 14:56 38.83914 25.32967 35916 ft 444 kts 319°
2026-04-21 14:56 38.88769 25.28157 35915 ft 444 kts 319°
2026-04-21 14:57 38.93654 25.23309 35913 ft 444 kts 318°
2026-04-21 14:57 38.98547 25.18443 35918 ft 445 kts 318°
2026-04-21 14:58 39.03440 25.13568 35911 ft 445 kts 318°
2026-04-21 14:58 39.08342 25.08677 35908 ft 446 kts 318°
2026-04-21 14:59 39.13238 25.03781 35909 ft 446 kts 318°
2026-04-21 14:59 39.18138 24.98874 35906 ft 446 kts 318°
2026-04-21 15:00 39.23037 24.93958 35904 ft 446 kts 318°
2026-04-21 15:00 39.27931 24.89033 35916 ft 446 kts 318°
2026-04-21 15:01 39.32819 24.84102 35899 ft 445 kts 318°
2026-04-21 15:01 39.37700 24.79171 35903 ft 445 kts 318°
2026-04-21 15:02 39.42575 24.74236 35912 ft 445 kts 318°
2026-04-21 15:02 39.47412 24.69331 35896 ft 445 kts 318°
2026-04-21 15:03 39.52281 24.64385 35908 ft 445 kts 318°
2026-04-21 15:03 39.57142 24.59438 35895 ft 444 kts 318°
2026-04-21 15:04 39.61998 24.54485 35895 ft 444 kts 318°
2026-04-21 15:04 39.66844 24.49532 35896 ft 443 kts 318°
2026-04-21 15:05 39.71687 24.44573 35901 ft 443 kts 318°
2026-04-21 15:05 39.78946 24.37123 35911 ft 443 kts 318°
2026-04-21 15:06 39.83785 24.32146 35907 ft 443 kts 317°
2026-04-21 15:06 39.88624 24.27159 35904 ft 443 kts 317°
2026-04-21 15:07 39.93457 24.22169 35908 ft 443 kts 317°
2026-04-21 15:07 39.98285 24.17176 35908 ft 443 kts 317°
2026-04-21 15:08 40.03109 24.12176 35931 ft 443 kts 317°
2026-04-21 15:08 40.07938 24.07162 35916 ft 443 kts 317°
2026-04-21 15:09 40.12726 24.02183 35914 ft 443 kts 317°
2026-04-21 15:09 40.17537 23.97169 35913 ft 442 kts 317°
2026-04-21 15:10 40.22339 23.92156 35909 ft 442 kts 317°
2026-04-21 15:10 40.27137 23.87136 35912 ft 441 kts 317°
2026-04-21 15:11 40.31931 23.82112 35930 ft 441 kts 317°
2026-04-21 15:11 40.36733 23.77070 35904 ft 443 kts 317°
2026-04-21 15:12 40.41535 23.72021 35911 ft 442 kts 317°
2026-04-21 15:12 40.46322 23.66975 35906 ft 441 kts 317°
2026-04-21 15:13 40.51102 23.61929 35899 ft 441 kts 317°
2026-04-21 15:13 40.55877 23.56876 35912 ft 441 kts 317°
2026-04-21 15:14 40.60652 23.51815 35905 ft 441 kts 317°
2026-04-21 15:14 40.65428 23.46743 35896 ft 441 kts 317°
2026-04-21 15:15 40.70194 23.41673 35887 ft 440 kts 317°
2026-04-21 15:15 40.74962 23.36591 35895 ft 441 kts 317°
2026-04-21 15:16 40.79736 23.31490 35896 ft 442 kts 317°
2026-04-21 15:16 40.84515 23.26377 35906 ft 443 kts 317°
2026-04-21 15:17 40.89295 23.21252 35891 ft 443 kts 317°
2026-04-21 15:17 40.94080 23.16123 35893 ft 443 kts 317°
2026-04-21 15:18 40.98860 23.10993 35898 ft 442 kts 317°
2026-04-21 15:18 41.03633 23.05860 35904 ft 442 kts 317°
2026-04-21 15:19 41.08399 23.00724 35899 ft 442 kts 317°
2026-04-21 15:19 41.13412 22.95980 35909 ft 444 kts 322°
2026-04-21 15:20 41.18601 22.91537 35909 ft 444 kts 322°
2026-04-21 15:20 41.23770 22.87065 35900 ft 443 kts 322°
2026-04-21 15:21 41.28920 22.82577 35912 ft 443 kts 322°
2026-04-21 15:21 41.33286 22.79003 35917 ft 446 kts 327°
2026-04-21 15:22 41.39937 22.75138 35926 ft 450 kts 333°
2026-04-21 15:22 41.45741 22.71988 35932 ft 451 kts 332°
2026-04-21 15:23 41.51546 22.68802 35939 ft 451 kts 332°
2026-04-21 15:23 41.56403 22.66114 35957 ft 452 kts 332°
2026-04-21 15:24 41.62177 22.62906 35943 ft 453 kts 332°
2026-04-21 15:24 41.68004 22.59660 35954 ft 455 kts 332°
2026-04-21 15:25 41.73839 22.56410 35957 ft 454 kts 332°
2026-04-21 15:25 41.79672 22.53149 35968 ft 454 kts 332°
2026-04-21 15:26 41.85487 22.49895 35967 ft 452 kts 332°
2026-04-21 15:26 41.91292 22.46639 35968 ft 452 kts 332°
2026-04-21 15:27 41.97084 22.43382 35975 ft 451 kts 332°
2026-04-21 15:27 42.02878 22.40119 35986 ft 451 kts 332°
2026-04-21 15:28 42.08660 22.36857 35993 ft 450 kts 332°
2026-04-21 15:28 42.14432 22.33592 35988 ft 450 kts 332°
2026-04-21 15:29 42.20206 22.30321 36005 ft 450 kts 332°
2026-04-21 15:29 42.25974 22.27047 35998 ft 450 kts 332°
2026-04-21 15:30 42.31407 22.23041 36009 ft 442 kts 322°
2026-04-21 15:30 42.36226 22.17970 36014 ft 437 kts 315°
2026-04-21 15:31 42.40773 22.12509 36012 ft 438 kts 314°
2026-04-21 15:31 42.45323 22.07018 36019 ft 440 kts 314°
2026-04-21 15:32 42.49906 22.01510 36025 ft 441 kts 315°
2026-04-21 15:32 42.54503 21.95993 36029 ft 442 kts 315°
2026-04-21 15:33 42.59114 21.90454 36024 ft 443 kts 314°
2026-04-21 15:33 42.63719 21.84911 36019 ft 443 kts 314°
2026-04-21 15:34 42.68288 21.79399 36031 ft 442 kts 314°
2026-04-21 15:34 42.72880 21.73847 36032 ft 442 kts 314°
2026-04-21 15:35 42.77467 21.68288 36027 ft 441 kts 314°
2026-04-21 15:35 42.82050 21.62724 36035 ft 441 kts 314°
2026-04-21 15:36 42.86628 21.57155 36022 ft 441 kts 314°
2026-04-21 15:36 42.91203 21.51578 36032 ft 441 kts 314°
2026-04-21 15:37 42.95769 21.45999 36038 ft 441 kts 314°
2026-04-21 15:37 43.00337 21.40406 36035 ft 441 kts 314°
2026-04-21 15:38 43.04903 21.34804 36030 ft 441 kts 314°
2026-04-21 15:38 43.09470 21.29191 36027 ft 441 kts 314°
2026-04-21 15:39 43.14032 21.23570 36019 ft 441 kts 314°
2026-04-21 15:39 43.18588 21.17945 36022 ft 440 kts 314°
2026-04-21 15:40 43.23133 21.12322 36039 ft 440 kts 314°
2026-04-21 15:40 43.27680 21.06686 36036 ft 440 kts 314°
2026-04-21 15:41 43.32218 21.01048 36032 ft 440 kts 314°
2026-04-21 15:41 43.36746 20.95409 36027 ft 439 kts 314°
2026-04-21 15:42 43.41269 20.89761 36032 ft 438 kts 313°
2026-04-21 15:42 43.45499 20.83761 36032 ft 437 kts 310°
2026-04-21 15:43 43.49630 20.77628 36033 ft 437 kts 309°
2026-04-21 15:43 43.53743 20.71518 36022 ft 438 kts 310°
2026-04-21 15:44 43.57893 20.65363 36019 ft 439 kts 310°
2026-04-21 15:44 43.62050 20.59197 36032 ft 439 kts 310°
2026-04-21 15:45 43.66207 20.53020 36014 ft 439 kts 309°
2026-04-21 15:45 43.70358 20.46837 36021 ft 438 kts 309°
2026-04-21 15:46 43.74500 20.40656 36031 ft 438 kts 309°
2026-04-21 15:46 43.78628 20.34479 36026 ft 437 kts 309°
2026-04-21 15:47 43.82753 20.28292 36020 ft 437 kts 309°
2026-04-21 15:47 43.86867 20.22110 36024 ft 436 kts 309°
2026-04-21 15:48 43.90970 20.15932 36031 ft 435 kts 309°
2026-04-21 15:48 43.95068 20.09749 36020 ft 435 kts 309°
2026-04-21 15:49 43.99151 20.03572 36040 ft 434 kts 309°
2026-04-21 15:49 44.03226 19.97391 36022 ft 433 kts 309°
2026-04-21 15:50 44.07293 19.91212 36021 ft 433 kts 309°
2026-04-21 15:50 44.11348 19.85039 36021 ft 432 kts 309°
2026-04-21 15:51 44.15398 19.78858 36019 ft 432 kts 308°
2026-04-21 15:51 44.19438 19.72677 36021 ft 432 kts 308°
2026-04-21 15:52 44.23484 19.66477 36025 ft 432 kts 308°
2026-04-21 15:52 44.27523 19.60274 36036 ft 433 kts 308°
2026-04-21 15:53 44.31545 19.54082 36030 ft 433 kts 308°
2026-04-21 15:53 44.35589 19.47841 36031 ft 433 kts 308°
2026-04-21 15:54 44.39630 19.41592 36028 ft 433 kts 308°
2026-04-21 15:54 44.43668 19.35334 36028 ft 433 kts 308°
2026-04-21 15:55 44.47698 19.29075 36024 ft 432 kts 308°
2026-04-21 15:55 44.51719 19.22813 36028 ft 432 kts 308°
2026-04-21 15:56 44.55732 19.16552 36037 ft 432 kts 308°
2026-04-21 15:56 44.59745 19.10277 36037 ft 432 kts 308°
2026-04-21 15:57 44.63927 19.04201 36037 ft 434 kts 311°
2026-04-21 15:57 44.68224 18.98238 36036 ft 434 kts 311°
2026-04-21 15:58 44.72500 18.92246 36033 ft 434 kts 311°
2026-04-21 15:58 44.76758 18.86212 36032 ft 434 kts 310°
2026-04-21 15:59 44.81005 18.80161 36060 ft 435 kts 310°
2026-04-21 15:59 44.85256 18.74089 36039 ft 435 kts 310°
2026-04-21 16:00 44.89504 18.68011 36041 ft 435 kts 310°
2026-04-21 16:00 44.93748 18.61926 36022 ft 435 kts 310°
2026-04-21 16:01 44.97980 18.55843 36041 ft 434 kts 310°
2026-04-21 16:01 45.02208 18.49753 36036 ft 434 kts 310°
2026-04-21 16:02 45.06432 18.43655 36056 ft 434 kts 310°
2026-04-21 16:02 45.10665 18.37535 36042 ft 436 kts 311°
2026-04-21 16:03 45.15042 18.31558 36036 ft 438 kts 313°
2026-04-21 16:03 45.19471 18.25682 36041 ft 440 kts 313°
2026-04-21 16:04 45.23925 18.19733 36043 ft 440 kts 313°
2026-04-21 16:04 45.28373 18.13740 36039 ft 441 kts 313°
2026-04-21 16:05 45.32814 18.07728 36042 ft 441 kts 313°
2026-04-21 16:05 45.37247 18.01708 36046 ft 441 kts 313°
2026-04-21 16:06 45.41679 17.95678 36050 ft 440 kts 313°
2026-04-21 16:06 45.46100 17.89650 36047 ft 440 kts 313°
2026-04-21 16:07 45.50514 17.83617 36051 ft 440 kts 313°
2026-04-21 16:07 45.54923 17.77577 36043 ft 439 kts 313°
2026-04-21 16:08 45.61531 17.68497 36057 ft 441 kts 313°
2026-04-21 16:09 45.65953 17.62402 36056 ft 442 kts 313°
2026-04-21 16:09 45.70383 17.56285 36052 ft 444 kts 313°
2026-04-21 16:10 45.74828 17.50134 36057 ft 444 kts 313°
2026-04-21 16:10 45.78521 17.45011 36055 ft 445 kts 313°
2026-04-21 16:11 45.82961 17.38840 36052 ft 445 kts 313°
2026-04-21 16:11 45.87404 17.32650 36051 ft 445 kts 313°
2026-04-21 16:12 45.91844 17.26447 36058 ft 446 kts 313°
2026-04-21 16:12 45.96284 17.20231 36057 ft 446 kts 313°
2026-04-21 16:13 46.00724 17.14001 36059 ft 446 kts 313°
2026-04-21 16:13 46.05164 17.07756 36057 ft 446 kts 313°
2026-04-21 16:14 46.09599 17.01503 36056 ft 446 kts 313°
2026-04-21 16:14 46.14034 16.95233 36069 ft 448 kts 313°
2026-04-21 16:15 46.18482 16.88933 36064 ft 448 kts 313°
2026-04-21 16:15 46.22948 16.82590 36409 ft 451 kts 313°
2026-04-21 16:15 46.25149 16.79458 36708 ft 450 kts 313°
2026-04-21 16:16 46.27375 16.76289 37002 ft 449 kts 313°
2026-04-21 16:16 46.29602 16.73113 37280 ft 449 kts 313°
2026-04-21 16:16 46.31826 16.69937 37544 ft 450 kts 313°
2026-04-21 16:16 46.34052 16.66755 37772 ft 450 kts 313°
2026-04-21 16:17 46.36280 16.63565 37953 ft 451 kts 313°
2026-04-21 16:17 46.40775 16.57118 38074 ft 458 kts 313°
2026-04-21 16:18 46.45318 16.50588 38077 ft 461 kts 313°
2026-04-21 16:18 46.49865 16.44037 38077 ft 461 kts 313°
2026-04-21 16:19 46.54406 16.37477 38079 ft 460 kts 313°
2026-04-21 16:19 46.58936 16.30916 38072 ft 459 kts 313°
2026-04-21 16:20 46.63458 16.24351 38076 ft 459 kts 313°
2026-04-21 16:20 46.67970 16.17782 38087 ft 459 kts 314°
2026-04-21 16:21 46.72478 16.11203 38087 ft 458 kts 314°
2026-04-21 16:21 46.76980 16.04619 38070 ft 458 kts 313°
2026-04-21 16:22 46.81536 15.98110 38070 ft 459 kts 317°
2026-04-21 16:22 46.86377 15.92049 38089 ft 459 kts 318°
2026-04-21 16:23 46.91226 15.86068 38106 ft 459 kts 318°
2026-04-21 16:23 46.96128 15.79976 38083 ft 459 kts 318°
2026-04-21 16:24 47.00946 15.73943 38079 ft 459 kts 318°
2026-04-21 16:24 47.05785 15.67857 38067 ft 458 kts 318°
2026-04-21 16:25 47.10618 15.61761 38070 ft 458 kts 318°
2026-04-21 16:25 47.15447 15.55658 38082 ft 458 kts 317°
2026-04-21 16:26 47.20276 15.49538 38094 ft 458 kts 318°
2026-04-21 16:26 47.25102 15.43410 38087 ft 458 kts 317°
2026-04-21 16:27 47.29924 15.37271 38109 ft 458 kts 317°
2026-04-21 16:27 47.34743 15.31118 38104 ft 458 kts 317°
2026-04-21 16:28 47.39555 15.24961 38117 ft 458 kts 317°
2026-04-21 16:28 47.44367 15.18787 38126 ft 458 kts 317°
2026-04-21 16:29 47.49178 15.12599 38131 ft 458 kts 317°
2026-04-21 16:29 47.53988 15.06397 38134 ft 459 kts 317°
2026-04-21 16:30 47.58762 15.00230 38145 ft 458 kts 317°
2026-04-21 16:30 47.63557 14.94021 38153 ft 457 kts 317°
2026-04-21 16:31 47.68338 14.87800 38176 ft 457 kts 317°
2026-04-21 16:31 47.73132 14.81552 38161 ft 459 kts 318°
2026-04-21 16:32 47.77942 14.75274 38166 ft 461 kts 317°
2026-04-21 16:32 47.82767 14.68958 38174 ft 463 kts 317°
2026-04-21 16:33 47.87607 14.62606 38171 ft 464 kts 317°
2026-04-21 16:33 47.92443 14.56242 38174 ft 464 kts 317°
2026-04-21 16:34 47.97270 14.49874 38172 ft 463 kts 317°
2026-04-21 16:34 48.02087 14.43501 38181 ft 462 kts 317°
2026-04-21 16:35 48.06892 14.37127 38178 ft 461 kts 317°
2026-04-21 16:35 48.11684 14.30755 38181 ft 460 kts 317°
2026-04-21 16:36 48.16461 14.24388 38189 ft 460 kts 317°
2026-04-21 16:36 48.21230 14.18011 38206 ft 460 kts 317°
2026-04-21 16:37 48.26003 14.11615 38194 ft 460 kts 317°
2026-04-21 16:37 48.30784 14.05192 38186 ft 462 kts 317°
2026-04-21 16:38 48.35569 13.98745 38180 ft 463 kts 317°
2026-04-21 16:38 48.40362 13.92270 38181 ft 463 kts 317°
2026-04-21 16:39 48.45159 13.85773 38178 ft 464 kts 317°
2026-04-21 16:39 48.49916 13.79313 38188 ft 464 kts 317°
2026-04-21 16:40 48.54713 13.72780 38180 ft 465 kts 317°
2026-04-21 16:40 48.59516 13.66223 38177 ft 465 kts 317°
2026-04-21 16:41 48.63535 13.60724 38177 ft 465 kts 317°
2026-04-21 16:41 48.68705 13.52494 38174 ft 464 kts 310°
2026-04-21 16:42 48.72882 13.45044 38173 ft 464 kts 310°
2026-04-21 16:42 48.77058 13.37578 38185 ft 465 kts 310°
2026-04-21 16:43 48.81247 13.30117 38174 ft 465 kts 310°
2026-04-21 16:43 48.85449 13.22639 38176 ft 466 kts 310°
2026-04-21 16:44 48.89649 13.15147 38174 ft 466 kts 310°
2026-04-21 16:44 48.93840 13.07649 38174 ft 466 kts 310°
2026-04-21 16:45 48.98032 13.00126 38184 ft 466 kts 310°
2026-04-21 16:45 49.02216 12.92595 38187 ft 466 kts 310°
2026-04-21 16:46 49.06403 12.85038 38181 ft 467 kts 310°
2026-04-21 16:46 49.10591 12.77459 38179 ft 468 kts 310°
2026-04-21 16:47 49.14781 12.69853 38178 ft 468 kts 310°
2026-04-21 16:47 49.18937 12.62287 38177 ft 468 kts 310°
2026-04-21 16:48 49.23114 12.54659 38178 ft 468 kts 310°
2026-04-21 16:48 49.27293 12.47008 38166 ft 468 kts 310°
2026-04-21 16:49 49.31460 12.39355 38186 ft 468 kts 310°
2026-04-21 16:49 49.35632 12.31672 38171 ft 469 kts 310°
2026-04-21 16:50 49.39800 12.23973 38171 ft 470 kts 310°
2026-04-21 16:50 49.43974 12.16241 38174 ft 470 kts 310°
2026-04-21 16:51 49.48139 12.08501 38168 ft 470 kts 310°
2026-04-21 16:51 49.52299 12.00750 38169 ft 469 kts 310°
2026-04-21 16:52 49.56452 11.92988 38167 ft 469 kts 310°
2026-04-21 16:52 49.59897 11.86532 38174 ft 470 kts 310°
2026-04-21 16:53 49.64749 11.77412 38166 ft 471 kts 310°
2026-04-21 16:53 49.68891 11.69602 38163 ft 470 kts 310°
2026-04-21 16:54 49.73032 11.61771 38174 ft 471 kts 310°
2026-04-21 16:54 49.77172 11.53918 38178 ft 471 kts 310°
2026-04-21 16:55 49.81302 11.46059 38186 ft 471 kts 310°
2026-04-21 16:55 49.85408 11.38225 38175 ft 471 kts 310°
2026-04-21 16:56 49.89533 11.30328 38188 ft 472 kts 310°
2026-04-21 16:56 49.93659 11.22407 38192 ft 472 kts 310°
2026-04-21 16:57 49.97779 11.14475 38198 ft 472 kts 310°
2026-04-21 16:57 50.01903 11.06510 38198 ft 473 kts 310°
2026-04-21 16:58 50.06019 10.98535 38188 ft 473 kts 310°
2026-04-21 16:58 50.10132 10.90541 38205 ft 473 kts 309°
2026-04-21 16:59 50.14234 10.82547 38206 ft 472 kts 309°
2026-04-21 16:59 50.18332 10.74532 38209 ft 473 kts 310°
2026-04-21 17:00 50.22437 10.66484 38215 ft 473 kts 310°
2026-04-21 17:00 50.25840 10.59792 38207 ft 473 kts 309°
2026-04-21 17:01 50.29930 10.51725 38214 ft 474 kts 309°
2026-04-21 17:01 50.34018 10.43638 38217 ft 474 kts 309°
2026-04-21 17:02 50.38102 10.35532 38215 ft 474 kts 309°
2026-04-21 17:02 50.42179 10.27417 38216 ft 474 kts 309°
2026-04-21 17:03 50.46253 10.19280 38242 ft 474 kts 309°
2026-04-21 17:03 50.50324 10.11127 38221 ft 475 kts 309°
2026-04-21 17:04 50.54394 10.02949 38237 ft 475 kts 309°
2026-04-21 17:04 50.58460 9.94755 38239 ft 475 kts 309°
2026-04-21 17:05 50.62522 9.86540 38241 ft 475 kts 309°
2026-04-21 17:05 50.66577 9.78316 38239 ft 475 kts 309°
2026-04-21 17:06 50.70625 9.70079 38235 ft 475 kts 309°
2026-04-21 17:06 50.74661 9.61838 38237 ft 475 kts 309°
2026-04-21 17:07 50.78669 9.53631 38246 ft 474 kts 309°
2026-04-21 17:07 50.82693 9.45365 38249 ft 474 kts 309°
2026-04-21 17:08 50.86710 9.37087 38230 ft 474 kts 309°